User: anonymous   Login
Location: Newark
(25.3833°N, 97.4000°E)
Time: 09:39:34
(UTC+00:00)
Language:

CAS-4A - Orbit

View from above orbital plane
View from above orbital plane
View from above satellite
View from above satellite

Ground track
Ground track

The orbit data is extracted from the following two-line orbital elements,

1 42761U 17034D   20055.71353256  .00000373  00000-0  36158-4 0  9999
2 42761  43.0200 291.3159 0011643  28.6143  75.3296 15.09829278148770
Epoch (UTC): 24 February 2020 17:07:29
Eccentricity: 0.0011643
inclination: 43.0200°
perigee height: 528 km
apogee height: 545 km
right ascension of ascending node: 291.3159°
argument of perigee: 28.6143°
revolutions per day: 15.09829278
mean anomaly at epoch: 75.3296°
orbit number at epoch: 14877

The dashed part of the orbit path shows where the satellite is in the earth's shadow,  

DLR